Location: Newark
(56.0692°N, 115.8617°E)
Time: 12:40:11
(UTC+00:00)

Vanguard 2 Rocket - Pass Details

Date: 03 June 2020
Orbit: 556 x 3325 km, 32.9° (Epoch: 14 July)

Event Time Altitude Azimuth Distance (km) Brightness Sun altitude
Rises 10:44:25 0° 249° (WSW) 4,800 11.4 14.5°
Reaches altitude 10° 10:48:43 10° 231° (SW) 4,286 10.9 13.9°
Maximum altitude 10:55:48 18° 195° (SSW) 4,361 10.4 13.0°
Drops below altitude 10° 11:04:53 10° 162° (SSE) 5,674 10.6 11.8°
Sets 11:12:13 0° 147° (SSE) 7,071 10.9 10.9°
